Regional Weather Roundup
Issued by NWS

Home | Current Version | Previous Version | Graphics & Text | Print | Product List | Glossary On
Versions: 1 2 3 4 5 6 7 8 9 10 11 12 13 14 15 16 17 18 19 20 21 22 23 24 25 26 27 28 29 30 31 32 33 34 35 36 37 38 39 40 41 42 43 44 45 46 47 48 49 50
000
ASUS43 KIND 182109
RWRIN

WEATHER ROUNDUP FOR INDIANA
NATIONAL WEATHER SERVICE INDIANAPOLIS IN
400 PM EST THU JAN 18 2018

NOTE: "FAIR" INDICATES FEW OR NO CLOUDS BELOW 12,000 FEET WITH NO
SIGNIFICANT WEATHER AND/OR OBSTRUCTIONS TO VISIBILITY.

* - STATION DOES NOT REPORT WEATHER SUCH AS PRECIPITATION OR FOG.

+ - STATION NOT QUALITY CONTROLLED BY THE NATIONAL WEATHER SERVICE.
    USE DATA WITH CAUTION...ESPECIALLY DEWPOINT AND RELATIVE
    HUMIDITY OBSERVATIONS.

INZ001>003-010>013-019-020-182200-
NORTHWEST INDIANA

CITY           SKY/WX    TMP DP  RH WIND       PRES   REMARKS
GARY /AIRPORT/ SUNNY     32  16  51 SW16G29   30.04F WCI  21
KNOX *+        FAIR      28  18  64 SW18      30.08F WCI  16
LA PORTE +     FAIR      27  17  64 SW12      30.05F WCI  17
MICHIGAN CITY+ FAIR      32  18  55 SW13G22   30.03F WCI  22
MONTICELLO +   FAIR      29  16  57 SW13      30.11S WCI  19
RENSSELAER +   FAIR      30  19  64 SW21      30.10F WCI  17
VALPARAISO     FAIR      30  18  60 SW15      30.05F WCI  19

$$

LMZ046-743>745-182200-
SOUTHERN LAKE MICHIGAN

STATION/POSITION TIME  TEMP    WIND        PRES    WAVE
                       AIR SEA DIR/SP/G            HT
                 (UTC) (F)     (DEG/KT/KT) (MB)    (FT)
BURNS HARBOR     2040   30     200/ 20/ 26 1017.3F
MICHIGAN CITY    2040   31     190/ 15/ 18   N/A

$$

INZ004-005-014>016-021>024-182200-
NORTH CENTRAL INDIANA

CITY           SKY/WX    TMP DP  RH WIND       PRES   REMARKS
ELKHART        FAIR      28  16  59 SW12G17   30.04F WCI  18
GOSHEN         FAIR      26  15  63 SW18G32   30.05F WCI  13
LOGANSPORT +   FAIR      28  18  64 SW16      30.13S WCI  17
PERU/GRISSOM   FAIR      27  17  65 SW16      30.10F WCI  15
ROCHESTER +    FAIR      32  18  55 SW15G22   30.09F WCI  22
SOUTH BEND     FAIR      26  15  63 SW20G26   30.04F WCI  12
WARSAW +       FAIR      28  14  54 SW12G18   30.07F WCI  18

$$

INZ006>009-017-018-025>027-182200-
NORTHEAST INDIANA

CITY           SKY/WX    TMP DP  RH WIND       PRES   REMARKS
AUBURN +       FAIR      28  16  59 SW9G16    30.08S WCI  20
FORT WAYNE     FAIR      27  16  63 SW16      30.10F WCI  15
HUNTINGTON +   FAIR      27  15  59 SW9G17    30.11S WCI  18
KENDALLVILLE + FAIR      29  15  58 SW17      30.05F WCI  16

$$

INZ028-029-035-036-043>045-051>053-182200-
WEST CENTRAL INDIANA

CITY           SKY/WX    TMP DP  RH WIND       PRES   REMARKS
CRAWFORDSVL +  FAIR      26  15  63 MISG        N/A
GREENCASTLE +  FAIR      30  12  47 SW8       30.19F WCI  23
LAFAYETTE      FAIR      29  16  58 SW10      30.14F WCI  20
TERRE HAUTE    FAIR      28  15  58 SW9       30.23F WCI  19

$$

INZ030>032-037>040-046>048-054>057-064-065-182200-
CENTRAL INDIANA

CITY           SKY/WX    TMP DP  RH WIND       PRES   REMARKS
ANDERSON       SUNNY     30  16  55 SW12G17   30.16  WCI  21
COLUMBUS       SUNNY     30  12  47 S12       30.22F WCI  21
FISHERS *+     FAIR      30  18  59 SW8       30.17  WCI  23
FRANKFORT +    FAIR      30  19  62 SW15      30.14F WCI  19
GREENWOOD *+   FAIR      34  13  42 SW12G17   30.19F WCI  26
INDIANAPOLIS   FAIR      31  14  49 SW15      30.18F WCI  20
-EAGLE CREEK   FAIR      29  13  51 SW10G18   30.17F WCI  20
MARION +       FAIR      28  17  65 SW13      30.14F WCI  17
MT COMFORT *+  FAIR      32  18  55 SW15      30.17F WCI  22
SHELBYVILLE    FAIR      28  17  63 S10       30.19F WCI  19
ZIONSVILLE +   FAIR      28  14  55 S18       30.15F WCI  15

$$

INZ033-034-041-042-049-050-058-059-182200-
EAST CENTRAL INDIANA

CITY           SKY/WX    TMP DP  RH WIND       PRES   REMARKS
MUNCIE         FAIR      31  13  47 SW15      30.13F WCI  20
RICHMOND +     FAIR      28  18  64 SW15      30.17R WCI  17

$$

INZ060-061-067>069-081>083-085>088-182200-
SOUTHWEST INDIANA

CITY           SKY/WX    TMP DP  RH WIND       PRES   REMARKS
EVANSVILLE     FAIR      28  15  58 S17G23    30.33F WCI  16
HUNTINGBURG +  FAIR      31  17  56 S15       30.32F WCI  20
WASHINGTON +   FAIR      30  12  47 S15       30.28S WCI  19

$$

INZ062-063-066-070>080-084-089>092-182200-
SOUTH CENTRAL AND SOUTHEAST INDIANA

CITY           SKY/WX    TMP DP  RH WIND       PRES   REMARKS
BATESVILLE *+    N/A    N/A N/A N/A MISG        N/A
BEDFORD +      FAIR      32  12  43 SW7       30.26S WCI  26
BLOOMINGTON    FAIR      32  13  45 SW15G21   30.22F WCI  22
FRENCH LICK *+ FAIR      30   9  40 SW9       30.28F WCI  22
MADISON *+     FAIR      30  16  55 S12       30.28F WCI  21
NORTH VERNON + FAIR      28  14  54 SW13      30.25S WCI  18
SEYMOUR +      FAIR      34  16  47 SW9       30.26F WCI  26

$$





USA.gov is the U.S. government's official web portal to all federal, state and local government web resources and services.